Location: Castle Hill Houses
(40.8186°N, 73.8497°W)
Time: 21:31:05
(UTC+00:00)

Ariane Rocket - Pass Details

Date: 26 January 2020
Orbit: 761 x 769 km, 98.7° (Epoch: 16 February)

Event Time Altitude Azimuth Distance (km) Brightness Sun altitude
Rises 00:49:40 0° 186° (S) 3,211 6.3 -31.3°
Reaches altitude 10° 00:52:06 10° 194° (SSW) 2,291 5.6 -31.8°
Maximum altitude 00:56:47 38° 262° (W) 1,162 4.3 -32.7°
Drops below altitude 10° 01:01:30 10° 330° (NNW) 2,312 5.8 -33.5°
Sets 01:03:59 0° 338° (NNW) 3,244 6.5 -34.0°
